FW9328 Weather Reports


time (UTC)temp
F
wind
direction
speed
knots
gust
knots
rain 1hr
in
rain 24hr
in
rain mn
in
humidity
%
barometer
mb
20240625203542 100 5 4.3 9.6 0.00 0.00 0.00 17 1017.4
20240625203052 99 71 2.6 7.0 0.00 0.00 0.00 16 1017.5
20240625202543 99 24 0.9 6.1 0.00 0.00 0.00 17 1017.7
20240625202042 98 50 0.9 7.0 0.00 0.00 0.00 20 1017.8
20240625201545 98 110 0.9 7.0 0.00 0.00 0.00 19 1017.8
20240625201043 97 47 2.6 5.2 0.00 0.00 0.00 18 1017.9
20240625200542 97 85 1.7 8.7 0.00 0.00 0.00 18 1017.9
20240625200041 97 109 2.6 8.7 0.00 0.00 0.00 18 1018.0
20240625195543 97 0 2.6 5.2 0.00 0.00 0.00 18 1018.0
20240625195124 97 24 0.9 7.0 0.00 0.00 0.00 19 1018.1
20240625194612 97 101 0.9 7.0 0.00 0.00 0.00 18 1018.2
20240625194059 96 17 0.9 6.1 0.00 0.00 0.00 18 1018.2
20240625193601 95 0 1.7 5.2 0.00 0.00 0.00 19 1018.4
20240625193110 94 0 0.9 7.8 0.00 0.00 0.00 20 1018.6
20240625192546 94 36 1.7 7.8 0.00 0.00 0.00 20 1018.6
20240625192056 94 53 0.9 5.2 0.00 0.00 0.00 22 1018.7
20240625191544 94 85 1.7 5.2 0.00 0.00 0.00 20 1018.8
20240625191043 94 348 0.9 4.3 0.00 0.00 0.00 20 1018.8
20240625190546 94 0 0.9 4.3 0.00 0.00 0.00 23 1018.9
20240625190043 95 352 0.9 9.6 0.00 0.00 0.00 21 1018.9
20240625185543 95 360 3.5 9.6 0.00 0.00 0.00 21 1018.9
20240625185046 94 21 1.7 7.8 0.00 0.00 0.00 21 1018.9
20240625184551 94 54 1.7 7.8 0.00 0.00 0.00 22 1019.1
20240625184042 94 52 3.5 7.8 0.00 0.00 0.00 21 1019.1
20240625183543 93 54 1.7 8.7 0.00 0.00 0.00 22 1019.1
20240625183044 93 50 2.6 8.7 0.00 0.00 0.00 21 1019.1
20240625182542 92 38 2.6 8.7 0.00 0.00 0.00 24 1019.1
20240625182043 92 45 2.6 8.7 0.00 0.00 0.00 23 1019.3
20240625181552 91 43 1.7 7.0 0.00 0.00 0.00 24 1019.3
20240625181046 91 0 0.9 7.0 0.00 0.00 0.00 23 1019.4
20240625180542 91 37 1.7 6.1 0.00 0.00 0.00 26 1019.4
20240625180052 90 30 0.9 6.1 0.00 0.00 0.00 23 1019.3
20240625175544 91 0 1.7 6.1 0.00 0.00 0.00 23 1019.5
20240625175043 91 107 1.7 5.2 0.00 0.00 0.00 24 1019.5
20240625174554 91 23 1.7 5.2 0.00 0.00 0.00 25 1019.6
20240625174043 90 24 2.6 7.8 0.00 0.00 0.00 26 1019.6
20240625173542 90 35 3.5 7.8 0.00 0.00 0.00 26 1019.5
20240625173055 90 23 0.9 8.7 0.00 0.00 0.00 29 1019.5
20240625172545 90 32 1.7 8.7 0.00 0.00 0.00 27 1019.6
20240625172043 89 92 3.5 8.7 0.00 0.00 0.00 27 1019.6
20240625171548 89 22 1.7 7.8 0.00 0.00 0.00 27 1019.6
20240625171044 89 34 1.7 7.0 0.00 0.00 0.00 27 1019.6
20240625170548 88 57 1.7 7.0 0.00 0.00 0.00 27 1019.6
20240625170047 88 5 3.5 7.0 0.00 0.00 0.00 24 1019.6
20240625165542 87 16 0.9 4.3 0.00 0.00 0.00 28 1019.6
20240625165043 87 360 1.7 4.3 0.00 0.00 0.00 27 1019.6
20240625164544 86 34 2.6 4.3 0.00 0.00 0.00 29 1019.6
20240625164043 86 44 0.9 3.5 0.00 0.00 0.00 32 1019.6
20240625163542 86 95 0.9 5.2 0.00 0.00 0.00 30 1019.6
20240625163044 85 0 0.9 6.1 0.00 0.00 0.00 30 1019.6
20240625162545 85 30 1.7 6.1 0.00 0.00 0.00 32 1019.7
20240625162043 84 31 0.0 2.6 0.00 0.00 0.00 32 1019.8
20240625161556 84 11 0.0 1.7 0.00 0.00 0.00 33 1019.7
20240625161043 83 0 0.0 1.7 0.00 0.00 0.00 32 1019.8
20240625160542 83 0 0.0 1.7 0.00 0.00 0.00 38 1019.8
20240625160048 82 0 0.0 1.7 0.00 0.00 0.00 38 1019.7
20240625155543 82 0 0.0 1.7 0.00 0.00 0.00 34 1019.7
20240625155045 82 0 0.0 2.6 0.00 0.00 0.00 36 1019.8
20240625154559 82 0 0.9 2.6 0.00 0.00 0.00 37 1019.7
20240625154041 82 0 0.0 1.7 0.00 0.00 0.00 37 1019.8
20240625153541 81 0 0.0 1.7 0.00 0.00 0.00 41 1019.7
20240625153050 81 0 0.0 2.6 0.00 0.00 0.00 39 1019.7
20240625152541 81 292 0.0 2.6 0.00 0.00 0.00 38 1019.6
20240625152040 80 323 0.0 2.6 0.00 0.00 0.00 43 1019.6
20240625151547 80 0 0.0 2.6 0.00 0.00 0.00 44 1019.6
20240625151041 80 308 0.9 6.1 0.00 0.00 0.00 42 1019.5
20240625150542 79 292 0.9 6.1 0.00 0.00 0.00 43 1019.6
20240625150046 79 19 1.7 6.1 0.00 0.00 0.00 43 1019.5
20240625145542 79 0 0.0 6.1 0.00 0.00 0.00 47 1019.4
20240625145046 78 9 0.9 6.1 0.00 0.00 0.00 44 1019.4
20240625144551 78 294 0.9 2.6 0.00 0.00 0.00 42 1019.4
20240625144041 77 0 0.0 2.6 0.00 0.00 0.00 49 1019.3
20240625143541 77 0 0.0 2.6 0.00 0.00 0.00 48 1019.2
20240625143050 76 0 0.0 2.6 0.00 0.00 0.00 47 1019.2
20240625142543 76 340 0.0 2.6 0.00 0.00 0.00 50 1019.2
20240625142045 75 322 0.0 1.7 0.00 0.00 0.00 55 1019.1
20240625141548 75 0 0.0 1.7 0.00 0.00 0.00 58 1018.9
20240625141041 74 0 0.0 1.7 0.00 0.00 0.00 54 1018.9
20240625140541 74 0 0.0 1.7 0.00 0.00 0.00 56 1018.8
20240625140055 73 298 0.0 1.7 0.00 0.00 0.00 53 1018.8
20240625135540 73 298 0.0 0.9 0.00 0.00 0.00 57 1018.8
20240625135041 72 0 0.0 0.9 0.00 0.00 0.00 57 1018.7
20240625134545 72 0 0.0 0.9 0.00 0.00 0.00 60 1018.7
20240625134040 71 298 0.0 0.9 0.00 0.00 0.00 59 1018.7
20240625133544 71 0 0.0 1.7 0.00 0.00 0.00 59 1018.6
20240625133058 70 0 0.0 1.7 0.00 0.00 0.00 54 1018.5
20240625132540 70 293 0.0 0.9 0.00 0.00 0.00 56 1018.6
20240625132041 70 0 0.0 1.7 0.00 0.00 0.00 52 1018.5
20240625131546 69 0 0.0 2.6 0.00 0.00 0.00 55 1018.4
20240625131041 69 0 0.0 2.6 0.00 0.00 0.00 54 1018.4
20240625130540 69 0 0.0 1.7 0.00 0.00 0.00 50 1018.4
20240625130047 69 0 0.9 1.7 0.00 0.00 0.00 52 1018.4
20240625125541 69 0 0.0 2.6 0.00 0.00 0.00 48 1018.4
20240625125041 69 30 0.0 3.5 0.00 0.00 0.00 47 1018.4
20240625124542 69 29 0.9 3.5 0.00 0.00 0.00 48 1018.3
20240625124041 70 36 0.0 3.5 0.00 0.00 0.00 52 1018.2
20240625123538 70 39 1.7 3.5 0.00 0.00 0.00 49 1018.2
20240625123045 69 0 0.0 6.1 0.00 0.00 0.00 44 1018.1
20240625122537 68 269 1.7 6.1 0.00 0.00 0.00 42 1018.0
20240625122037 66 272 0.9 3.5 0.00 0.00 0.00 48 1017.9
20240625121550 65 192 0.0 1.7 0.00 0.00 0.00 50 1018.0
20240625121038 65 0 0.0 1.7 0.00 0.00 0.00 53 1017.9
20240625120546 65 0 0.0 1.7 0.00 0.00 0.00 53 1017.8
20240625120043 65 0 0.0 2.6 0.00 0.00 0.00 52 1017.8
20240625115539 65 212 0.0 2.6 0.00 0.00 0.00 51 1017.8
20240625115038 65 212 0.0 2.6 0.00 0.00 0.00 50 1017.8
20240625114550 64 86 0.0 2.6 0.00 0.00 0.00 54 1017.7
20240625114038 64 0 0.0 2.6 0.00 0.00 0.00 55 1017.8
20240625113538 64 70 0.0 0.9 0.00 0.00 0.00 53 1017.8
20240625113043 64 339 0.0 1.7 0.00 0.00 0.00 53 1017.8
20240625112538 64 0 0.0 2.6 0.00 0.00 0.00 52 1017.9
20240625112038 63 0 0.0 2.6 0.00 0.00 0.00 52 1017.9
20240625111545 63 0 0.0 0.9 0.00 0.00 0.00 55 1017.8
20240625111041 62 0 0.0 0.9 0.00 0.00 0.00 52 1017.8
20240625110539 62 0 0.0 0.9 0.00 0.00 0.00 54 1017.8
20240625110046 62 0 0.0 0.9 0.00 0.00 0.00 57 1018.0
20240625105538 61 0 0.0 0.9 0.00 0.00 0.00 58 1017.8
20240625105039 61 0 0.0 1.7 0.00 0.00 0.00 58 1017.8
20240625104544 61 0 0.0 1.7 0.00 0.00 0.00 56 1017.9
20240625104041 61 238 0.0 1.7 0.00 0.00 0.00 57 1017.9
20240625103539 61 0 0.0 1.7 0.00 0.00 0.00 58 1017.7
20240625103055 62 0 0.0 1.7 0.00 0.00 0.00 58 1017.7
20240625102538 62 0 0.0 1.7 0.00 0.00 0.00 58 1017.7
20240625102042 62 0 0.0 1.7 0.00 0.00 0.00 57 1017.6
20240625101559 62 0 0.0 1.7 0.00 0.00 0.00 55 1017.6
20240625101039 62 0 0.0 2.6 0.00 0.00 0.00 54 1017.5
20240625100538 62 0 0.0 2.6 0.00 0.00 0.00 53 1017.6
20240625100041 63 0 0.0 1.7 0.00 0.00 0.00 54 1017.5
20240625095540 63 261 0.0 1.7 0.00 0.00 0.00 54 1017.6
20240625095038 63 256 0.0 6.1 0.00 0.00 0.00 52 1017.5
20240625094545 63 0 0.0 6.1 0.00 0.00 0.00 54 1017.5
20240625094038 62 336 1.7 6.1 0.00 0.00 0.00 52 1017.5
20240625093538 62 0 0.0 2.6 0.00 0.00 0.00 55 1017.5
20240625093058 62 296 0.0 2.6 0.00 0.00 0.00 57 1017.6
20240625092538 62 0 0.0 2.6 0.00 0.00 0.00 57 1017.7
20240625092042 62 30 0.0 3.5 0.00 0.00 0.00 56 1017.5
20240625091546 62 27 1.7 3.5 0.00 0.00 0.00 54 1017.3
20240625091042 62 0 0.0 3.5 0.00 0.00 0.00 53 1017.3
20240625090542 62 19 0.9 3.5 0.00 0.00 0.00 56 1017.3
20240625090042 62 0 0.0 4.3 0.00 0.00 0.00 57 1017.5
20240625085542 62 0 0.9 4.3 0.00 0.00 0.00 56 1017.5
20240625085042 62 321 0.9 2.6 0.00 0.00 0.00 58 1017.5
20240625084543 62 0 0.0 1.7 0.00 0.00 0.00 58 1017.5
20240625084046 63 0 0.0 0.9 0.00 0.00 0.00 58 1017.4
20240625083544 63 0 0.0 0.9 0.00 0.00 0.00 57 1017.3
20240625083043 63 0 0.0 1.7 0.00 0.00 0.00 55 1017.5
20240625082542 63 0 0.0 1.7 0.00 0.00 0.00 56 1017.3
20240625082042 63 0 0.0 1.7 0.00 0.00 0.00 55 1017.2
20240625081545 64 0 0.0 0.9 0.00 0.00 0.00 55 1017.2
20240625081042 64 352 0.0 0.9 0.00 0.00 0.00 54 1017.2
20240625080545 64 0 0.0 0.9 0.00 0.00 0.00 53 1017.3
20240625080106 64 0 0.0 1.7 0.00 0.00 0.00 53 1017.3
20240625075545 64 0 0.0 2.6 0.00 0.00 0.00 53 1017.3
20240625075043 64 0 0.0 2.6 0.00 0.00 0.00 51 1017.2
20240625074543 64 0 0.9 2.6 0.00 0.00 0.00 51 1017.3
20240625074042 64 275 0.9 2.6 0.00 0.00 0.00 54 1017.3
20240625073543 64 0 0.0 3.5 0.00 0.00 0.00 54 1017.3
20240625073043 64 0 1.7 3.5 0.00 0.00 0.00 54 1017.3
20240625072542 64 225 0.0 1.7 0.00 0.00 0.00 56 1017.5
20240625072043 64 0 0.0 1.7 0.00 0.00 0.00 56 1017.5
20240625071540 64 0 0.0 1.7 0.00 0.00 0.00 55 1017.5
20240625071042 65 0 0.0 2.6 0.00 0.00 0.00 56 1017.5
20240625070542 65 0 0.0 2.6 0.00 0.00 0.00 55 1017.5
20240625070045 65 0 0.0 2.6 0.00 0.00 0.00 55 1017.5
20240625065542 65 0 0.0 1.7 0.00 0.00 0.00 53 1017.5
20240625065043 65 0 0.0 1.7 0.00 0.00 0.00 54 1017.5
20240625064553 66 352 0.0 2.6 0.00 0.00 0.00 53 1017.5
20240625064043 66 352 1.7 2.6 0.00 0.00 0.00 53 1017.5
20240625063542 66 0 0.0 2.6 0.00 0.00 0.00 55 1017.5
20240625063048 66 27 0.9 2.6 0.00 0.00 0.00 56 1017.5
20240625062543 66 0 0.0 1.7 0.00 0.00 0.00 52 1017.5
20240625062042 66 301 0.0 1.7 0.00 0.00 0.00 54 1017.5
20240625061548 66 0 0.0 1.7 0.00 0.00 0.00 52 1017.6
20240625061043 67 292 0.9 1.7 0.00 0.00 0.00 52 1017.6
20240625060612 67 0 0.0 1.7 0.00 0.00 0.00 52 1017.5
20240625060052 68 0 0.0 1.7 0.00 0.00 0.00 51 1017.7
20240625055544 68 0 0.0 1.7 0.00 0.00 0.00 51 1017.7
20240625055042 68 325 0.0 1.7 0.00 0.00 0.00 51 1017.8
20240625054548 69 0 0.0 1.7 0.00 0.00 0.00 49 1017.8
20240625054043 69 0 0.0 0.9 0.00 0.00 0.00 47 1017.8
20240625053542 69 0 0.0 1.7 0.00 0.00 0.00 47 1017.8
20240625053047 69 0 0.0 2.6 0.00 0.00 0.00 49 1017.8
20240625052542 70 0 0.9 7.0 0.00 0.00 0.00 49 1017.9
20240625052042 70 341 1.7 7.0 0.00 0.00 0.00 46 1018.0
20240625051545 70 22 1.7 7.0 0.00 0.00 0.00 46 1018.0
20240625051043 71 22 0.0 1.7 0.00 0.00 0.00 45 1017.9
20240625050546 71 265 0.0 2.6 0.00 0.00 0.00 45 1017.9
20240625050044 71 218 0.0 2.6 0.00 0.00 0.00 42 1017.9
20240625045542 71 222 0.0 2.6 0.00 0.00 0.00 46 1017.9
20240625045042 72 269 0.0 2.6 0.00 0.00 0.00 46 1018.1
20240625044548 72 0 0.0 1.7 0.00 0.00 0.00 43 1018.1
20240625044045 72 0 0.0 1.7 0.00 0.00 0.00 43 1018.1
20240625043546 72 0 0.0 0.9 0.00 0.00 0.00 44 1018.3
20240625043044 72 0 0.0 0.9 0.00 0.00 0.00 44 1018.2
20240625042541 72 0 0.0 0.9 0.00 0.00 0.00 45 1018.3
20240625042043 72 0 0.0 1.7 0.00 0.00 0.00 44 1018.3
20240625041547 73 0 0.0 1.7 0.00 0.00 0.00 44 1018.3
20240625041042 73 69 0.0 2.6 0.00 0.00 0.00 44 1018.3
20240625040543 73 30 0.0 2.6 0.00 0.00 0.00 46 1018.3
20240625040049 74 0 0.0 3.5 0.00 0.00 0.00 47 1018.3
20240625035542 74 27 0.9 3.5 0.00 0.00 0.00 47 1018.2
20240625035042 74 12 1.7 3.5 0.00 0.00 0.00 45 1018.3
20240625034541 74 69 0.0 3.5 0.00 0.00 0.00 40 1018.4
20240625034042 74 0 0.0 4.3 0.00 0.00 0.00 40 1018.3
20240625033542 74 237 0.0 4.3 0.00 0.00 0.00 41 1018.4
20240625033046 74 0 0.0 3.5 0.00 0.00 0.00 42 1018.2
20240625032542 74 167 0.9 3.5 0.00 0.00 0.00 42 1018.3
20240625032042 74 0 0.0 1.7 0.00 0.00 0.00 46 1018.3
20240625031540 75 0 0.0 0.9 0.00 0.00 0.00 45 1018.4
20240625031045 75 0 0.0 2.6 0.00 0.00 0.00 45 1018.4
20240625030544 75 0 0.0 2.6 0.00 0.00 0.00 43 1018.4
20240625030044 75 104 0.0 1.7 0.00 0.00 0.00 42 1018.4
20240625025546 76 0 0.0 0.9 0.00 0.00 0.00 43 1018.4
20240625025041 76 0 0.0 1.7 0.00 0.00 0.00 42 1018.4
20240625024600 76 0 0.0 2.6 0.00 0.00 0.00 41 1018.3
20240625024042 76 121 0.0 2.6 0.00 0.00 0.00 40 1018.3
20240625023544 77 0 0.0 2.6 0.00 0.00 0.00 39 1018.4
20240625023048 77 0 0.0 2.6 0.00 0.00 0.00 41 1018.3
20240625022543 77 0 0.0 2.6 0.00 0.00 0.00 40 1018.3
20240625022042 77 0 0.0 2.6 0.00 0.00 0.00 39 1018.4
20240625021554 78 66 0.0 2.6 0.00 0.00 0.00 39 1018.6
20240625021042 78 0 0.0 3.5 0.00 0.00 0.00 38 1018.7
20240625020542 79 42 0.9 3.5 0.00 0.00 0.00 40 1018.9
20240625020046 79 40 0.9 3.5 0.00 0.00 0.00 37 1019.0
20240625015544 79 0 0.0 5.2 0.00 0.00 0.00 36 1019.2
20240625015042 79 331 0.9 5.2 0.00 0.00 0.00 34 1019.2
20240625014546 79 283 0.0 3.5 0.00 0.00 0.00 35 1019.2
20240625014041 79 0 0.0 4.3 0.00 0.00 0.00 36 1019.4
20240625013542 79 271 0.9 4.3 0.00 0.00 0.00 35 1019.3
20240625013046 80 0 0.9 9.6 0.00 0.00 0.00 35 1019.3
20240625012541 80 0 0.9 9.6 0.00 0.00 0.00 36 1019.3
20240625012041 80 317 2.6 9.6 0.00 0.00 0.00 35 1019.3
20240625011551 80 319 2.6 9.6 0.00 0.00 0.00 35 1019.1
20240625011042 80 270 3.5 11.3 0.00 0.00 0.00 35 1018.9
20240625010543 81 307 2.6 13.0 0.00 0.00 0.00 34 1018.8
20240625010041 81 280 5.2 13.0 0.00 0.00 0.00 33 1018.8
20240625005542 82 254 4.3 13.0 0.00 0.00 0.00 33 1018.7
20240625005042 82 257 5.2 13.9 0.00 0.00 0.00 33 1018.7
20240625004556 82 342 4.3 13.9 0.00 0.00 0.00 36 1018.6
20240625004045 82 273 6.1 15.6 0.00 0.00 0.00 36 1018.6
20240625003543 82 290 6.1 15.6 0.00 0.00 0.00 36 1018.5
20240625003042 82 342 6.1 13.9 0.00 0.00 0.00 38 1018.3
20240625002545 81 322 5.2 13.9 0.00 0.00 0.00 38 1018.2
20240625002042 81 270 3.5 8.7 0.00 0.00 0.00 41 1017.8
20240625001544 81 285 1.7 7.0 0.00 0.00 0.00 45 1017.7
20240625001043 81 320 1.7 7.0 0.00 0.00 0.00 46 1017.5
20240625000542 81 296 0.9 3.5 0.00 0.00 0.00 48 1017.4
20240625000051 81 281 0.9 3.5 0.00 0.00 0.00 51 1017.3
20240624235541 81 339 0.0 1.7 0.00 0.00 0.00 53 1017.1
20240624235042 82 0 0.0 2.6 0.00 0.00 0.00 53 1017.0
20240624234546 82 0 0.0 2.6 0.00 0.00 0.00 54 1016.8
20240624234046 82 276 0.0 2.6 0.00 0.00 0.00 52 1016.7
20240624233543 82 0 0.9 2.6 0.00 0.00 0.00 53 1016.7
20240624233043 81 274 0.0 1.7 0.00 0.00 0.00 53 1016.7
20240624232542 81 0 0.0 1.7 0.00 0.00 0.00 54 1016.7
20240624232045 81 0 0.0 1.7 0.00 0.00 0.00 56 1016.6
20240624231557 80 0 0.0 0.9 0.00 0.00 0.00 56 1016.6
20240624231048 80 0 0.0 0.9 0.00 0.00 0.00 58 1016.6
20240624230544 80 0 0.0 0.9 0.00 0.00 0.00 61 1016.6
20240624230044 79 235 0.0 3.5 0.00 0.00 0.00 58 1016.6
20240624225542 78 235 0.0 3.5 0.00 0.00 0.00 57 1016.6
20240624225043 78 200 0.9 3.5 0.00 0.00 0.00 57 1016.8
20240624224546 77 0 0.0 1.7 0.00 0.00 0.00 60 1016.8
20240624224042 76 0 0.0 3.5 0.00 0.00 0.00 55 1016.7
20240624223542 76 0 0.9 7.0 0.00 0.00 0.00 66 1016.8
20240624223042 76 0 0.0 7.0 0.00 0.00 0.00 66 1016.9
20240624222543 76 15 1.7 7.0 0.00 0.00 0.00 64 1016.8
20240624222043 77 327 1.7 7.0 0.00 0.00 0.00 63 1016.8
20240624221542 79 352 3.5 7.0 0.00 0.00 0.00 61 1017.1
20240624221042 80 41 1.7 8.7 0.00 0.00 0.00 53 1017.5
20240624220542 82 217 2.6 8.7 0.00 0.00 0.00 44 1017.8
20240624220059 84 286 2.6 8.7 0.00 0.00 0.00 45 1017.4
20240624215545 85 301 1.7 7.0 0.00 0.00 0.00 39 1017.0
20240624215043 86 288 1.7 7.0 0.00 0.00 0.00 34 1017.1
20240624214551 87 300 2.6 6.1 0.00 0.00 0.00 31 1016.9
20240624214042 88 360 1.7 7.0 0.00 0.00 0.00 31 1016.7
20240624213542 89 304 1.7 7.8 0.00 0.00 0.00 30 1016.6
20240624213048 89 295 2.6 7.8 0.00 0.00 0.00 30 1016.8
20240624212543 90 352 1.7 7.0 0.00 0.00 0.00 29 1016.8
20240624212042 90 348 0.9 6.1 0.00 0.00 0.00 29 1017.0
20240624211552 91 288 2.6 6.1 0.00 0.00 0.00 27 1017.0
20240624211042 92 313 2.6 7.8 0.00 0.00 0.00 27 1017.0
20240624210542 92 0 2.6 7.8 0.00 0.00 0.00 28 1016.8
20240624210045 93 24 2.6 6.1 0.00 0.00 0.00 25 1016.7
20240624205541 93 0 0.9 4.3 0.00 0.00 0.00 26 1016.7
20240624205042 94 10 1.7 11.3 0.00 0.00 0.00 27 1016.7
20240624204544 94 44 0.9 11.3 0.00 0.00 0.00 26 1016.7
20240624204042 94 32 5.2 11.3 0.00 0.00 0.00 23 1016.8